When you browse on this site, cookies collect data to enhance your experience and personalize the content and advertising you see.
Visit our Privacy Policy to learn more. By continuing to use the site, you agree to this use of cookies and data.

Hourly Weather Nakhchivan

Today, 3 August, Monday

Time Temperature Precipitation Wind Pressure Humidity
00:00 +28°C° 0 mm 4 mps 683 mmHg 46%
01:00 +27°C° 0 mm 4 mps 683 mmHg 48%
02:00 +27°C° 0 mm 3 mps 683 mmHg 50%
03:00 +26°C° 0 mm 3 mps 683 mmHg 52%
04:00 +26°C° 0.3 mm 2 mps 683 mmHg 53%
05:00 +25°C° 0.3 mm 2 mps 683 mmHg 55%
06:00 +25°C° 0.3 mm 2 mps 683 mmHg 56%
07:00 +26°C° 0 mm 3 mps 684 mmHg 53%
08:00 +27°C° 0 mm 3 mps 684 mmHg 49%
09:00 +28°C° 0 mm 4 mps 684 mmHg 45%
10:00 +29°C° 0 mm 4 mps 684 mmHg 41%
11:00 +30°C° 0 mm 4 mps 684 mmHg 37%
12:00 +33°C° 0 mm 5 mps 684 mmHg 32%
13:00 +33°C° 0 mm 5 mps 684 mmHg 30%
14:00 +34°C° 0 mm 5 mps 684 mmHg 28%
15:00 +35°C° 0 mm 4 mps 684 mmHg 26%
16:00 +35°C° 0 mm 5 mps 684 mmHg 26%
17:00 +34°C° 0 mm 5 mps 684 mmHg 27%
18:00 +34°C° 0 mm 5 mps 684 mmHg 28%
19:00 +33°C° 0 mm 5 mps 685 mmHg 32%
20:00 +30°C° 0 mm 4 mps 685 mmHg 37%
21:00 +28°C° 0 mm 4 mps 685 mmHg 41%
22:00 +28°C° 0 mm 3 mps 685 mmHg 45%
23:00 +27°C° 0 mm 3 mps 685 mmHg 48%

Tomorrow, 4 August, Tuesday

Time Temperature Precipitation Wind Pressure Humidity
00:00 +26°C° 0 mm 3 mps 685 mmHg 52%
01:00 +25°C° 0 mm 3 mps 685 mmHg 53%
02:00 +25°C° 0 mm 2 mps 686 mmHg 55%
03:00 +25°C° 0 mm 2 mps 686 mmHg 57%
04:00 +24°C° 0 mm 2 mps 686 mmHg 57%
05:00 +24°C° 0 mm 2 mps 686 mmHg 57%
06:00 +24°C° 0 mm 2 mps 686 mmHg 57%
07:00 +25°C° 0 mm 2 mps 686 mmHg 53%
08:00 +26°C° 0 mm 3 mps 686 mmHg 49%
09:00 +27°C° 0 mm 3 mps 686 mmHg 45%
10:00 +28°C° 0 mm 3 mps 686 mmHg 42%
11:00 +29°C° 0 mm 4 mps 686 mmHg 39%
12:00 +30°C° 0 mm 4 mps 686 mmHg 36%
13:00 +32°C° 0 mm 4 mps 686 mmHg 34%
14:00 +33°C° 0 mm 4 mps 685 mmHg 32%
15:00 +33°C° 0 mm 4 mps 685 mmHg 31%
16:00 +32°C° 0 mm 5 mps 685 mmHg 33%
17:00 +32°C° 0 mm 5 mps 685 mmHg 34%
18:00 +30°C° 0 mm 5 mps 685 mmHg 36%
19:00 +28°C° 0 mm 5 mps 685 mmHg 39%
20:00 +27°C° 0 mm 4 mps 685 mmHg 43%
21:00 +25°C° 0 mm 4 mps 685 mmHg 46%
22:00 +25°C° 0 mm 4 mps 684 mmHg 48%
23:00 +24°C° 0 mm 3 mps 684 mmHg 49%

Day after tomorrow, 5 August, Wednesday

Time Temperature Precipitation Wind Pressure Humidity
00:00 +22°C° 0 mm 3 mps 684 mmHg 51%
01:00 +23°C° 0 mm 2 mps 684 mmHg 52%
02:00 +23°C° 0 mm 2 mps 684 mmHg 53%
03:00 +21°C° 0 mm 2 mps 683 mmHg 54%
04:00 +21°C° 0 mm 2 mps 683 mmHg 55%
05:00 +21°C° 0 mm 2 mps 683 mmHg 55%
06:00 +21°C° 0 mm 2 mps 683 mmHg 55%
07:00 +23°C° 0 mm 2 mps 683 mmHg 51%
08:00 +24°C° 0 mm 1 mps 683 mmHg 47%
09:00 +25°C° 0 mm 1 mps 683 mmHg 43%
10:00 +26°C° 0 mm 1 mps 683 mmHg 39%
11:00 +28°C° 0 mm 1 mps 683 mmHg 36%
12:00 +29°C° 0 mm 1 mps 683 mmHg 32%
13:00 +30°C° 0 mm 1 mps 683 mmHg 30%
14:00 +31°C° 0 mm 2 mps 683 mmHg 28%
15:00 +32°C° 0 mm 2 mps 683 mmHg 25%
16:00 +32°C° 0 mm 2 mps 683 mmHg 25%
17:00 +32°C° 0 mm 2 mps 683 mmHg 25%
18:00 +33°C° 0 mm 3 mps 684 mmHg 25%
19:00 +31°C° 0 mm 3 mps 684 mmHg 28%
20:00 +29°C° 0 mm 3 mps 684 mmHg 31%
21:00 +28°C° 0 mm 4 mps 684 mmHg 33%
22:00 +27°C° 0 mm 3 mps 684 mmHg 36%
23:00 +26°C° 0 mm 3 mps 684 mmHg 39%

6 August, Thursday

Time Temperature Precipitation Wind Pressure Humidity
00:00 +25°C° 0 mm 2 mps 684 mmHg 42%
01:00 +25°C° 0 mm 2 mps 684 mmHg 45%
02:00 +24°C° 0 mm 2 mps 684 mmHg 47%
03:00 +23°C° 0 mm 1 mps 684 mmHg 50%
04:00 +23°C° 0 mm 1 mps 684 mmHg 50%
05:00 +23°C° 0 mm 1 mps 684 mmHg 51%
06:00 +23°C° 0 mm 1 mps 684 mmHg 51%
07:00 +24°C° 0 mm 1 mps 685 mmHg 47%
08:00 +26°C° 0 mm 1 mps 685 mmHg 43%
09:00 +27°C° 0 mm 2 mps 685 mmHg 39%
10:00 +28°C° 0 mm 1 mps 685 mmHg 36%
11:00 +29°C° 0 mm 1 mps 685 mmHg 33%
12:00 +31°C° 0 mm 1 mps 685 mmHg 30%
13:00 +32°C° 0 mm 2 mps 685 mmHg 27%
14:00 +34°C° 0 mm 2 mps 685 mmHg 25%
15:00 +35°C° 0 mm 2 mps 685 mmHg 22%
16:00 +35°C° 0 mm 3 mps 685 mmHg 23%
17:00 +34°C° 0 mm 3 mps 685 mmHg 24%
18:00 +34°C° 0 mm 4 mps 685 mmHg 25%
19:00 +32°C° 0 mm 4 mps 685 mmHg 31%
20:00 +30°C° 0 mm 4 mps 685 mmHg 36%
21:00 +28°C° 0 mm 4 mps 686 mmHg 42%
22:00 +27°C° 0 mm 3 mps 686 mmHg 44%
23:00 +27°C° 0 mm 3 mps 686 mmHg 47%

7 August, Friday

Time Temperature Precipitation Wind Pressure Humidity
00:00 +26°C° 0 mm 2 mps 686 mmHg 49%
01:00 +25°C° 0 mm 2 mps 686 mmHg 50%
02:00 +25°C° 0 mm 2 mps 686 mmHg 52%
03:00 +24°C° 0 mm 1 mps 685 mmHg 54%
04:00 +24°C° 0 mm 2 mps 686 mmHg 55%
05:00 +24°C° 0 mm 2 mps 686 mmHg 56%
06:00 +24°C° 0 mm 2 mps 686 mmHg 57%
07:00 +25°C° 0 mm 2 mps 686 mmHg 52%
08:00 +26°C° 0 mm 2 mps 686 mmHg 48%
09:00 +27°C° 0 mm 2 mps 686 mmHg 43%
10:00 +29°C° 0 mm 2 mps 686 mmHg 39%
11:00 +30°C° 0 mm 2 mps 686 mmHg 35%
12:00 +31°C° 0 mm 2 mps 686 mmHg 31%
13:00 +32°C° 0 mm 2 mps 686 mmHg 29%
14:00 +35°C° 0 mm 3 mps 686 mmHg 27%
15:00 +36°C° 0 mm 3 mps 685 mmHg 24%
16:00 +35°C° 0 mm 3 mps 685 mmHg 25%
17:00 +35°C° 0 mm 3 mps 685 mmHg 26%
18:00 +35°C° 0 mm 4 mps 685 mmHg 28%
19:00 +33°C° 0 mm 4 mps 685 mmHg 31%
20:00 +30°C° 0 mm 4 mps 685 mmHg 34%
21:00 +29°C° 0 mm 4 mps 685 mmHg 38%
22:00 +28°C° 0 mm 3 mps 685 mmHg 39%
23:00 +27°C° 0 mm 3 mps 685 mmHg 41%

8 August, Saturday

Time Temperature Precipitation Wind Pressure Humidity
00:00 +27°C° 0 mm 3 mps 685 mmHg 42%
01:00 +26°C° 0 mm 2 mps 685 mmHg 44%
02:00 +25°C° 0 mm 2 mps 685 mmHg 46%
03:00 +25°C° 0 mm 2 mps 684 mmHg 47%
04:00 +25°C° 0 mm 2 mps 685 mmHg 48%
05:00 +25°C° 0 mm 2 mps 685 mmHg 48%
06:00 +24°C° 0 mm 1 mps 685 mmHg 48%
07:00 +26°C° 0 mm 1 mps 685 mmHg 45%
08:00 +27°C° 0 mm 2 mps 684 mmHg 41%
09:00 +28°C° 0 mm 2 mps 684 mmHg 37%
10:00 +30°C° 0 mm 2 mps 684 mmHg 34%
11:00 +31°C° 0 mm 2 mps 684 mmHg 31%
12:00 +34°C° 0 mm 2 mps 684 mmHg 27%
13:00 +35°C° 0 mm 2 mps 684 mmHg 25%
14:00 +36°C° 0 mm 3 mps 683 mmHg 23%
15:00 +38°C° 0 mm 3 mps 683 mmHg 21%
16:00 +37°C° 0 mm 3 mps 683 mmHg 21%
17:00 +37°C° 0 mm 4 mps 682 mmHg 22%
18:00 +37°C° 0 mm 4 mps 682 mmHg 22%
19:00 +35°C° 0 mm 4 mps 682 mmHg 25%
20:00 +34°C° 0 mm 4 mps 682 mmHg 28%
21:00 +32°C° 0 mm 4 mps 682 mmHg 32%
22:00 +30°C° 0 mm 3 mps 682 mmHg 34%
23:00 +29°C° 0 mm 3 mps 682 mmHg 36%
Show more